Location: Chippewa Lake
(41.0698°N, 81.9010°W)
Time: 02:13:40
(UTC+00:00)

Meteor 1-29 - Pass Details

Date: 09 May 2021
Orbit: 437 x 455 km, 97.7° (Epoch: 24 June)

Event Time Altitude Azimuth Distance (km) Brightness Sun altitude
Rises 08:08:08 0° 0° (N) 2,453 7.4 -20.2°
Reaches altitude 10° 08:10:21 10° 348° (NNW) 1,581 6.1 -19.9°
Enters shadow 08:12:49 26° 303° (WNW) 918 4.3 -19.6°
